YUNHAI-1 03 (53877 NORAD) Tracking and Keplerian Element Data

This shows tracking and keplerian element data for the satellite.

Feedback or suggestion? Click here.




ElementValue
Catalog53877
NameYUNHAI-1 03
Epoch Orbit877
Epoch Day325.17124827
Epoch Year2022
RAAN322.7284
Inclination98.499
Eccentricity0.0001129
Argument of Perigee76.5193
Mean Anonmoly283.6129
Mean Motion14.32833078
Decay Rate2.85E-06
L11 53877U 22115A 22325.17124827 .00000285 00000+0 12024-3 0 9993
L22 53877 98.4990 322.7284 0001129 76.5193 283.6129 14.32833078 8775



Live tracking and technical data element details for YUNHAI-1 03 (NORAD 53877). YUNHAI-1 03 can be tracked NOW for your location showing map with azimuth and elevation plus other details from your city location.







IsCatalogInMostPopularTable: catalog: 53877, numindb: -1

Insert: records affected: 1


GetName: 53877 YUNHAI-1 03

Hit Count: inserted at: Thu, 08 Dec 2022 10:18:48 GMT